THOR ABLESTAR DEB, 655

Orbit data source: Space-Track

THOR ABLESTAR DEB, 655 is space debris in LEO originally from a launch on Thu, 29 Jun 1961 UTC launched from the Air Force Eastern Test Range (AFETR). Debris objects in space refer to the collection of defunct objects orbiting the Earth. Examples of debris include non-operational satellites, rocket bodies, and fragments generated from explosions, collisions, or faulty payload assembly.

Loading next visibility...
Identifier
655, 1961-015HG
Orbit
LEO
Country
Flag of USUS
Related business
Manufacturer
Unknown
Mission
Spacecraft
Bus & Motor
Unknown
Mass
Unknown
Launch date (UTC)
1961-06-29 (65 years ago)
Launch vehicle
Unknown
Launch site
Air Force Eastern Test Range (AFETR)
Object type
Payload
Rocket body
Debris
Shape & HBR
Unknown shape, 0.1 m
Radar Cross Section
Small (<0.1 m²)

Expand to show TLE details & history
Last TLE update: 10 hours ago

TLE from 10 hours ago
0 THOR ABLESTAR DEB
1 00655U 61015HG  26034.47926444 -.00000179  00000-0 -25324-3 0  9992
2 00655  67.2553 160.0951 0362848  51.8503  24.6784 13.09468753 69429
Epoch: 2026-02-03T11:30Z
TLE epoch observation values (Epoch: 2026-02-03T11:30:08.447Z)
Latitude
64.69257°
Longitude
-84.22177°
Altitude
986.697 km
Speed
7.484 km/s
True Right ascension
14h 47m 53s
True Declination
64° 33' 49"
Sunlit
Object was in daylight at epoch
Visualization orbit readout
Latitude
Unknown
Longitude
Unknown
Altitude
Unknown
Speed
Unknown
Apparent Right ascension
Unknown
Apparent Declination
Unknown
Sunlit
N/A
Visualization observer readout
Local Sidereal Time
23:17:07
Azimuth
Unknown
Elevation
Unknown
Doppler factor
Unknown
Orbital elements
Apogee altitude
1,499.447 km
Perigee altitude
947.791 km
Semi-major axis
7,601.756 km
Eccentricity
0.03628
Inclination
67.2553°
RAAN
160.0951°
Arg. of periapsis
51.8503°
True anomaly
26.48862°
Mean anomaly
24.6784°
Eccentric anomaly
25.5759°
Mean motion
3.27471 °/min
Orbital period
109.93 mins
BSTAR
-0.00025324
Loading maneuver chart data...
Computing Atmospheric mass density...

Documentation

Showing up to 5 results
|